Date,TemperatureHighF,TemperatureAvgF,TemperatureLowF,DewpointHighF,DewpointAvgF,DewpointLowF,HumidityHigh,HumidityAvg,HumidityLow,PressureMaxIn,PressureMinIn,WindSpeedMaxMPH,WindSpeedAvgMPH,GustSpeedMaxMPH,PrecipitationSumIn
2013-3-1,26.3,18.1,5.8,15.1,11.1,2.6,93,74,60,30.25,30.12,11,4,12,0.00
2013-3-2,25.7,15.0,3.5,17.2,9.3,0.5,90,78,67,30.24,30.13,17,4,17,0.00
2013-3-3,25.6,10.5,-3.6,15.8,5.5,-7.2,91,80,64,30.14,30.07,15,3,16,0.00
2013-3-4,27.8,11.9,-5.7,13.0,4.4,-9.7,90,74,39,30.21,30.12,9,2,9,0.00
2013-3-5,26.9,20.8,5.9,20.7,15.6,2.3,93,80,70,30.21,30.07,24,6,24,0.00
2013-3-6,37.3,30.6,25.8,30.0,26.2,20.7,94,84,72,30.28,30.11,19,4,19,0.00
2013-3-7,28.7,25.9,23.5,22.9,20.8,18.5,89,81,73,30.45,30.27,15,4,16,0.00
2013-3-8,37.2,26.1,14.8,29.1,22.5,12.6,93,87,71,30.52,30.38,14,2,14,0.00
2013-3-9,44.3,33.0,18.6,32.5,23.7,16.5,94,71,44,30.38,29.95,16,4,16,0.23
2013-3-10,40.7,36.5,33.7,39.7,35.1,32.4,97,95,91,29.95,29.78,16,3,17,0.74
2013-3-11,46.0,37.6,32.3,44.7,36.7,31.5,98,96,93,29.84,29.41,25,5,27,0.62
2013-3-12,32.3,26.4,20.7,31.8,24.1,17.6,98,91,82,29.85,29.44,14,5,15,0.00
2013-3-13,28.3,22.4,16.6,20.6,16.2,12.9,91,78,54,30.20,29.84,19,8,22,0.02
2013-3-14,31.7,25.2,9.6,24.6,18.0,6.5,90,74,50,30.25,29.97,15,4,16,0.04
2013-3-15,32.4,27.8,19.7,29.4,20.9,10.8,93,75,59,29.98,29.83,22,8,22,0.00
2013-3-16,23.0,18.4,13.4,19.9,11.2,6.8,88,74,52,30.04,29.93,16,5,17,0.00
2013-3-17,22.9,17.0,10.8,20.0,8.0,3.0,90,68,51,30.35,30.04,24,6,26,0.00
2013-3-18,36.9,24.5,13.2,27.7,17.8,7.4,92,76,50,30.25,29.50,30,9,31,0.00
2013-3-19,30.2,26.7,24.0,28.4,23.7,17.6,93,89,76,29.80,29.42,22,7,25,0.00
2013-3-20,26.6,23.3,20.2,22.6,17.8,13.9,92,80,69,29.84,29.80,26,7,26,0.00
2013-3-21,26.6,25.0,22.6,24.4,20.3,17.0,93,82,72,29.94,29.82,20,7,20,0.00
2013-3-22,34.0,27.1,21.9,25.4,22.2,18.4,90,82,68,30.06,29.92,17,5,17,0.01
2013-3-23,36.2,28.7,16.9,28.5,23.8,14.5,94,82,63,30.12,30.05,15,4,16,0.00
2013-3-24,35.0,28.6,17.6,24.3,20.8,15.0,94,74,48,30.12,29.87,15,4,15,0.00
2013-3-25,38.0,32.3,28.4,28.9,25.1,22.1,87,75,62,30.00,29.85,19,7,20,0.00
2013-3-26,41.4,34.4,29.9,30.5,27.6,23.6,93,78,50,30.12,30.00,22,4,22,0.00
2013-3-27,41.4,33.1,23.7,29.8,27.6,22.2,96,81,62,30.21,30.09,20,5,20,0.00
2013-3-28,44.4,34.6,25.4,29.5,26.4,23.0,94,74,44,30.27,30.20,17,3,17,0.00
2013-3-29,44.9,31.7,18.4,27.0,22.0,16.0,94,70,39,30.28,30.21,14,3,16,0.00
2013-3-30,49.4,36.2,22.5,37.5,23.8,17.4,93,65,30,30.22,29.78,21,3,24,0.24
2013-3-31,41.1,37.7,34.3,39.7,36.6,33.4,97,96,93,29.78,29.58,15,3,18,0.10